Погода в Измите

Турция     40°45′59″N   29°56′26″E
темп.,
°C
ветер,
м/с
пор.,
м/с
влажн.,
%
обл.,
%
осадки,
мм/ч
давл.,
гПа
погр.,
м
6 марта, сб
сб600:00+10ююз22410 0.0 101823
03:00+10ю124329 0.0 101923
06:00+10ююз1241100 0.0 101923
09:00+11юз1243100 0.0 102030
12:00+14з3740100 0.0 10201107
15:00+14зюз4646100 0.1 10201540
18:00+7ссв3590100 0.9 1022401
21:00+6ссв3592100 6.1 1024371
7 марта, вс
вс700:00+5ссв4692100 3.8 1026457
03:00+4ссв3593100 5.9 1027389
06:00+4ссв3694100 1.4 1027404
09:00+3св3696100 2.9 1027410
12:00+3св3694100 0.7 1027458
15:00+4всв4577100 1.2 1025761
18:00+4всв456979 0.1 1024846
21:00+1в237644 0.1 1024211
8 марта, пн
пн800:00+1юв12740 0.0 1023102
03:00+1вюв01690 0.0 102265
06:000юв11670 0.0 102052
09:00+3ю01540 0.0 1020175
12:00+7ссз12370 0.0 1019699
15:00+9зсз22400 0.0 1017923
18:00+7з23550 0.0 1016372
21:00+4ю11680 0.0 101860
9 марта, вт
вт900:00+3ю11660 0.0 101824
03:00+3ю11600 0.0 101822
06:00+3ююз1151100 0.0 101822
09:00+6юв014289 0.0 101949
12:00+11св223552 0.0 1018485
15:00+13св333443 0.0 10171197
18:00+9св355690 0.0 1016439
21:00+6в245694 0.0 1018166
10 марта, ср
ср1000:00+6всв245798 0.0 1018147
03:00+5в136697 0.0 1017138
06:00+4в147275 0.0 1017161
09:00+6всв257352 0.0 1017373
12:00+9св466599 0.0 1016882
15:00+9св5667100 0.0 1015939
18:00+6св4680100 0.3 1015759
21:00+4св4793100 2.1 1017572